Time,TemperatureF,DewpointF,PressureIn,WindDirection,WindDirectionDegrees,WindSpeedMPH,WindSpeedGustMPH,Humidity,HourlyPrecipIn,Conditions,Clouds,dailyrainin,SoftwareType,DateUTC
2013-08-21 00:04:00,73.4,67.6,29.97,South,187,6.0,8.0,82,0.00,,,0.00,Wunderground v.1.15,2013-08-21 05:04:00,
2013-08-21 00:10:00,73.2,67.7,29.98,SSE,166,6.0,7.0,83,0.00,,,0.00,Wunderground v.1.15,2013-08-21 05:10:00,
2013-08-21 00:16:00,73.0,67.5,29.98,SE,138,6.0,10.0,83,0.00,,,0.00,Wunderground v.1.15,2013-08-21 05:16:00,
2013-08-21 00:22:00,72.9,67.8,29.98,SE,127,5.0,5.0,84,0.00,,,0.00,Wunderground v.1.15,2013-08-21 05:22:00,
2013-08-21 00:28:00,72.8,67.7,29.98,SE,128,5.0,7.0,84,0.00,,,0.00,Wunderground v.1.15,2013-08-21 05:28:00,
2013-08-21 00:34:00,72.6,67.5,29.98,SSE,153,5.0,7.0,84,0.00,,,0.00,Wunderground v.1.15,2013-08-21 05:34:00,
2013-08-21 00:40:00,72.4,67.6,29.98,SSE,151,5.0,5.0,85,0.00,,,0.00,Wunderground v.1.15,2013-08-21 05:40:00,
2013-08-21 00:46:00,72.2,67.4,29.98,SSE,165,5.0,5.0,85,0.00,,,0.00,Wunderground v.1.15,2013-08-21 05:46:00,
2013-08-21 00:52:00,72.0,67.2,29.98,ESE,120,4.0,6.0,85,0.00,,,0.00,Wunderground v.1.15,2013-08-21 05:52:00,
2013-08-21 00:58:00,72.0,67.6,29.98,SSE,166,5.0,6.0,86,0.00,,,0.00,Wunderground v.1.15,2013-08-21 05:58:00,
2013-08-21 01:04:00,71.8,67.4,29.98,SSE,155,6.0,9.0,86,0.00,,,0.00,Wunderground v.1.15,2013-08-21 06:04:00,
2013-08-21 01:10:00,71.7,67.3,29.98,SSE,155,6.0,6.0,86,0.00,,,0.00,Wunderground v.1.15,2013-08-21 06:10:00,
2013-08-21 01:16:00,71.6,67.5,29.98,SSE,160,6.0,6.0,87,0.00,,,0.00,Wunderground v.1.15,2013-08-21 06:16:00,
2013-08-21 01:22:00,71.5,67.4,29.98,SSW,203,6.0,8.0,87,0.00,,,0.00,Wunderground v.1.15,2013-08-21 06:22:00,
2013-08-21 01:28:00,71.4,67.3,29.98,SSE,154,6.0,8.0,87,0.00,,,0.00,Wunderground v.1.15,2013-08-21 06:28:00,
2013-08-21 01:34:00,71.3,67.6,29.98,SE,139,7.0,7.0,88,0.00,,,0.00,Wunderground v.1.15,2013-08-21 06:34:00,
2013-08-21 01:40:00,71.2,67.5,29.98,South,183,7.0,7.0,88,0.00,,,0.00,Wunderground v.1.15,2013-08-21 06:40:00,
2013-08-21 01:46:00,71.1,67.4,29.98,SSE,150,6.0,7.0,88,0.00,,,0.00,Wunderground v.1.15,2013-08-21 06:46:00,
2013-08-21 01:52:00,70.9,67.2,29.98,South,172,5.0,6.0,88,0.00,,,0.00,Wunderground v.1.15,2013-08-21 06:52:00,
2013-08-21 01:58:00,70.9,67.2,29.98,South,183,6.0,8.0,88,0.00,,,0.00,Wunderground v.1.15,2013-08-21 06:58:00,
2013-08-21 02:04:00,70.9,67.2,29.98,South,169,7.0,10.0,88,0.00,,,0.00,Wunderground v.1.15,2013-08-21 07:04:00,
2013-08-21 02:10:00,70.8,67.1,29.98,SE,124,7.0,7.0,88,0.00,,,0.00,Wunderground v.1.15,2013-08-21 07:10:00,
2013-08-21 02:16:00,70.7,67.0,29.98,ESE,113,7.0,10.0,88,0.00,,,0.00,Wunderground v.1.15,2013-08-21 07:16:00,
2013-08-21 02:22:00,70.6,67.2,29.98,SE,127,7.0,7.0,89,0.00,,,0.00,Wunderground v.1.15,2013-08-21 07:22:00,
2013-08-21 02:28:00,70.5,67.1,29.98,SE,127,6.0,7.0,89,0.00,,,0.00,Wunderground v.1.15,2013-08-21 07:28:00,
2013-08-21 02:34:00,70.3,66.9,29.98,SSE,155,5.0,7.0,89,0.00,,,0.00,Wunderground v.1.15,2013-08-21 07:34:00,
2013-08-21 02:40:00,70.3,66.9,29.98,SSE,162,5.0,5.0,89,0.00,,,0.00,Wunderground v.1.15,2013-08-21 07:40:00,
2013-08-21 02:46:00,70.2,67.1,29.98,South,174,4.0,5.0,90,0.00,,,0.00,Wunderground v.1.15,2013-08-21 07:46:00,
2013-08-21 02:52:00,70.2,67.1,29.98,South,177,4.0,6.0,90,0.00,,,0.00,Wunderground v.1.15,2013-08-21 07:52:00,
2013-08-21 02:58:00,70.2,67.1,29.98,SSE,165,4.0,6.0,90,0.00,,,0.00,Wunderground v.1.15,2013-08-21 07:58:00,
2013-08-21 03:04:00,70.2,67.1,29.98,SE,132,4.0,5.0,90,0.00,,,0.00,Wunderground v.1.15,2013-08-21 08:04:00,
2013-08-21 03:10:00,70.2,67.1,29.99,SE,138,4.0,4.0,90,0.00,,,0.00,Wunderground v.1.15,2013-08-21 08:10:00,
2013-08-21 03:16:00,70.2,67.1,29.99,SE,141,4.0,5.0,90,0.00,,,0.00,Wunderground v.1.15,2013-08-21 08:16:00,
2013-08-21 03:22:00,70.2,67.1,29.99,SSE,165,4.0,5.0,90,0.00,,,0.00,Wunderground v.1.15,2013-08-21 08:22:00,
2013-08-21 03:28:00,70.2,67.1,29.99,SE,141,4.0,7.0,90,0.00,,,0.00,Wunderground v.1.15,2013-08-21 08:28:00,
2013-08-21 03:34:00,70.2,67.1,29.99,SE,136,4.0,5.0,90,0.00,,,0.00,Wunderground v.1.15,2013-08-21 08:34:00,
2013-08-21 03:40:00,70.2,67.1,29.99,SE,143,5.0,5.0,90,0.00,,,0.00,Wunderground v.1.15,2013-08-21 08:40:00,
2013-08-21 03:46:00,70.2,67.1,29.99,South,179,5.0,6.0,90,0.00,,,0.00,Wunderground v.1.15,2013-08-21 08:46:00,
2013-08-21 03:52:00,70.2,67.1,29.99,South,172,5.0,6.0,90,0.00,,,0.00,Wunderground v.1.15,2013-08-21 08:52:00,
2013-08-21 03:58:00,70.4,67.3,29.99,SSE,157,5.0,6.0,90,0.00,,,0.00,Wunderground v.1.15,2013-08-21 08:58:00,
2013-08-21 04:04:00,70.4,67.3,29.99,SE,143,5.0,5.0,90,0.00,,,0.00,Wunderground v.1.15,2013-08-21 09:04:00,
2013-08-21 04:10:00,70.3,67.2,29.99,SSE,162,4.0,5.0,90,0.00,,,0.00,Wunderground v.1.15,2013-08-21 09:10:00,
2013-08-21 04:16:00,70.2,67.1,29.99,SSE,160,4.0,5.0,90,0.00,,,0.00,Wunderground v.1.15,2013-08-21 09:16:00,
2013-08-21 04:22:00,70.1,67.0,29.99,SE,146,3.0,5.0,90,0.00,,,0.00,Wunderground v.1.15,2013-08-21 09:22:00,
2013-08-21 04:28:00,70.1,67.0,29.99,South,181,3.0,5.0,90,0.00,,,0.00,Wunderground v.1.15,2013-08-21 09:28:00,
2013-08-21 04:34:00,70.1,67.0,29.99,SSE,153,3.0,5.0,90,0.00,,,0.00,Wunderground v.1.15,2013-08-21 09:34:00,
2013-08-21 04:40:00,70.1,67.0,29.99,South,174,3.0,5.0,90,0.00,,,0.00,Wunderground v.1.15,2013-08-21 09:40:00,
2013-08-21 04:46:00,70.1,67.0,29.99,SSE,167,3.0,6.0,90,0.00,,,0.00,Wunderground v.1.15,2013-08-21 09:46:00,
2013-08-21 04:52:00,70.1,67.3,29.99,South,184,4.0,5.0,91,0.00,,,0.00,Wunderground v.1.15,2013-08-21 09:52:00,
2013-08-21 04:58:00,70.2,67.4,29.99,SSE,162,4.0,6.0,91,0.00,,,0.00,Wunderground v.1.15,2013-08-21 09:58:00,
2013-08-21 05:04:00,70.3,67.5,29.99,SE,135,4.0,7.0,91,0.00,,,0.00,Wunderground v.1.15,2013-08-21 10:04:00,
2013-08-21 05:10:00,70.4,67.3,29.99,SE,137,4.0,4.0,90,0.00,,,0.00,Wunderground v.1.15,2013-08-21 10:10:00,
2013-08-21 05:16:00,70.4,67.6,29.99,SE,145,4.0,5.0,91,0.00,,,0.00,Wunderground v.1.15,2013-08-21 10:16:00,
2013-08-21 05:22:00,70.3,67.5,29.99,SSE,162,4.0,5.0,91,0.00,,,0.00,Wunderground v.1.15,2013-08-21 10:22:00,
2013-08-21 05:28:00,70.3,67.5,29.99,SE,141,3.0,5.0,91,0.00,,,0.00,Wunderground v.1.15,2013-08-21 10:28:00,
2013-08-21 05:34:00,70.2,67.4,29.99,SE,127,3.0,5.0,91,0.00,,,0.00,Wunderground v.1.15,2013-08-21 10:34:00,
2013-08-21 05:40:00,70.0,67.3,29.99,SSE,167,3.0,3.0,91,0.00,,,0.00,Wunderground v.1.15,2013-08-21 10:40:00,
2013-08-21 05:46:00,69.9,67.5,29.99,SSE,160,2.0,5.0,92,0.00,,,0.00,Wunderground v.1.15,2013-08-21 10:46:00,
2013-08-21 05:52:00,69.9,67.5,29.99,SE,129,2.0,5.0,92,0.00,,,0.00,Wunderground v.1.15,2013-08-21 10:52:00,
2013-08-21 05:58:00,69.8,67.4,29.99,SE,144,3.0,5.0,92,0.00,,,0.00,Wunderground v.1.15,2013-08-21 10:58:00,
2013-08-21 06:04:00,69.7,67.3,29.99,SSE,159,3.0,3.0,92,0.00,,,0.00,Wunderground v.1.15,2013-08-21 11:04:00,
2013-08-21 06:10:00,69.6,67.2,29.99,SE,129,2.0,3.0,92,0.00,,,0.00,Wunderground v.1.15,2013-08-21 11:10:00,
2013-08-21 06:16:00,69.6,67.5,29.99,SSE,150,2.0,3.0,93,0.00,,,0.00,Wunderground v.1.15,2013-08-21 11:16:00,
2013-08-21 06:22:00,69.6,67.5,29.99,SE,137,3.0,4.0,93,0.00,,,0.00,Wunderground v.1.15,2013-08-21 11:22:00,
2013-08-21 06:28:00,69.6,67.5,29.99,SE,134,3.0,4.0,93,0.00,,,0.00,Wunderground v.1.15,2013-08-21 11:28:00,
2013-08-21 06:34:00,69.4,67.3,29.99,SE,134,3.0,4.0,93,0.00,,,0.00,Wunderground v.1.15,2013-08-21 11:34:00,
2013-08-21 06:40:00,69.3,67.2,29.99,SE,124,3.0,3.0,93,0.00,,,0.00,Wunderground v.1.15,2013-08-21 11:40:00,
2013-08-21 06:46:00,69.2,67.4,30.00,SSE,149,3.0,5.0,94,0.00,,,0.00,Wunderground v.1.15,2013-08-21 11:46:00,
2013-08-21 06:52:00,69.3,67.5,30.00,SE,146,3.0,3.0,94,0.00,,,0.00,Wunderground v.1.15,2013-08-21 11:52:00,
2013-08-21 06:58:00,69.3,67.5,30.00,SE,138,3.0,6.0,94,0.00,,,0.00,Wunderground v.1.15,2013-08-21 11:58:00,
2013-08-21 07:04:00,69.3,67.5,30.00,SE,131,3.0,6.0,94,0.00,,,0.00,Wunderground v.1.15,2013-08-21 12:04:00,
2013-08-21 07:10:00,69.2,67.4,30.01,SSE,162,3.0,6.0,94,0.00,,,0.00,Wunderground v.1.15,2013-08-21 12:10:00,
2013-08-21 07:16:00,69.4,67.6,30.01,SE,146,3.0,6.0,94,0.00,,,0.00,Wunderground v.1.15,2013-08-21 12:16:00,
2013-08-21 07:22:00,69.6,67.8,30.01,SE,136,3.0,6.0,94,0.00,,,0.00,Wunderground v.1.15,2013-08-21 12:22:00,
2013-08-21 07:28:00,69.8,68.0,30.01,SE,130,3.0,6.0,94,0.00,,,0.00,Wunderground v.1.15,2013-08-21 12:28:00,
2013-08-21 07:34:00,69.9,68.1,30.01,SSW,198,3.0,6.0,94,0.00,,,0.00,Wunderground v.1.15,2013-08-21 12:34:00,
2013-08-21 07:40:00,70.1,68.3,30.02,SE,142,3.0,3.0,94,0.00,,,0.00,Wunderground v.1.15,2013-08-21 12:40:00,
2013-08-21 07:46:00,70.2,68.4,30.02,South,191,2.0,6.0,94,0.00,,,0.00,Wunderground v.1.15,2013-08-21 12:46:00,
2013-08-21 07:52:00,70.6,68.8,30.02,SSW,193,3.0,6.0,94,0.00,,,0.00,Wunderground v.1.15,2013-08-21 12:52:00,
2013-08-21 07:58:00,70.9,68.8,30.02,SE,146,3.0,6.0,93,0.00,,,0.00,Wunderground v.1.15,2013-08-21 12:58:00,
2013-08-21 08:04:00,71.0,68.9,30.03,SE,134,4.0,6.0,93,0.00,,,0.00,Wunderground v.1.15,2013-08-21 13:04:00,
2013-08-21 08:10:00,71.2,69.1,30.03,SE,135,4.0,4.0,93,0.00,,,0.00,Wunderground v.1.15,2013-08-21 13:10:00,
2013-08-21 08:16:00,71.4,69.3,30.03,SE,135,3.0,6.0,93,0.00,,,0.00,Wunderground v.1.15,2013-08-21 13:16:00,
2013-08-21 08:22:00,71.6,69.2,30.03,SE,140,3.0,6.0,92,0.00,,,0.00,Wunderground v.1.15,2013-08-21 13:22:00,
2013-08-21 08:28:00,71.9,69.4,30.03,SSE,165,3.0,6.0,92,0.00,,,0.00,Wunderground v.1.15,2013-08-21 13:28:00,
2013-08-21 08:34:00,72.8,70.3,30.03,South,184,2.0,6.0,92,0.00,,,0.00,Wunderground v.1.15,2013-08-21 13:34:00,
2013-08-21 08:40:00,73.6,70.5,30.04,South,187,3.0,6.0,90,0.00,,,0.00,Wunderground v.1.15,2013-08-21 13:40:00,
2013-08-21 08:46:00,74.1,70.6,30.04,SSW,197,4.0,6.0,89,0.00,,,0.00,Wunderground v.1.15,2013-08-21 13:46:00,
2013-08-21 08:52:00,74.3,70.5,30.04,SE,145,4.0,6.0,88,0.00,,,0.00,Wunderground v.1.15,2013-08-21 13:52:00,
2013-08-21 08:58:00,74.8,71.0,30.04,SE,138,3.0,6.0,88,0.00,,,0.00,Wunderground v.1.15,2013-08-21 13:58:00,
2013-08-21 09:04:00,75.2,71.1,30.04,SE,136,3.0,6.0,87,0.00,,,0.00,Wunderground v.1.15,2013-08-21 14:04:00,
2013-08-21 09:10:00,75.3,71.2,30.04,SSE,153,4.0,4.0,87,0.00,,,0.00,Wunderground v.1.15,2013-08-21 14:10:00,
2013-08-21 09:16:00,75.5,71.0,30.04,SE,134,4.0,6.0,86,0.00,,,0.00,Wunderground v.1.15,2013-08-21 14:16:00,
2013-08-21 09:22:00,76.0,71.5,30.04,South,170,5.0,9.0,86,0.00,,,0.00,Wunderground v.1.15,2013-08-21 14:22:00,
2013-08-21 09:28:00,75.9,71.4,30.04,SE,138,5.0,9.0,86,0.00,,,0.00,Wunderground v.1.15,2013-08-21 14:28:00,
2013-08-21 09:34:00,75.9,71.1,30.05,SE,139,6.0,12.0,85,0.00,,,0.00,Wunderground v.1.15,2013-08-21 14:34:00,
2013-08-21 09:40:00,76.4,71.9,30.04,SSE,165,7.0,7.0,86,0.00,,,0.00,Wunderground v.1.15,2013-08-21 14:40:00,
2013-08-21 09:46:00,77.1,71.9,30.04,SSE,153,5.0,7.0,84,0.00,,,0.00,Wunderground v.1.15,2013-08-21 14:46:00,
2013-08-21 09:52:00,77.4,71.8,30.05,South,188,5.0,10.0,83,0.00,,,0.00,Wunderground v.1.15,2013-08-21 14:52:00,
2013-08-21 09:58:00,77.4,71.1,30.04,SSE,149,5.0,10.0,81,0.00,,,0.00,Wunderground v.1.15,2013-08-21 14:58:00,
2013-08-21 10:04:00,76.8,70.9,30.04,SSW,193,4.0,6.0,82,0.00,,,0.00,Wunderground v.1.15,2013-08-21 15:04:00,
2013-08-21 10:10:00,76.7,70.8,30.04,SSW,194,4.0,6.0,82,0.00,,,0.00,Wunderground v.1.15,2013-08-21 15:10:00,
2013-08-21 10:16:00,77.0,70.4,30.04,SSW,212,4.0,6.0,80,0.00,,,0.00,Wunderground v.1.15,2013-08-21 15:16:00,
2013-08-21 10:22:00,77.1,70.5,30.04,SW,222,5.0,6.0,80,0.00,,,0.00,Wunderground v.1.15,2013-08-21 15:22:00,
2013-08-21 10:28:00,77.8,71.1,30.04,SSW,195,5.0,6.0,80,0.00,,,0.00,Wunderground v.1.15,2013-08-21 15:28:00,
2013-08-21 10:34:00,78.6,70.8,30.04,SSE,153,6.0,8.0,77,0.00,,,0.00,Wunderground v.1.15,2013-08-21 15:34:00,
2013-08-21 10:40:00,78.7,70.1,30.04,South,170,5.0,6.0,75,0.00,,,0.00,Wunderground v.1.15,2013-08-21 15:40:00,
2013-08-21 10:46:00,78.9,70.3,30.05,SE,136,5.0,6.0,75,0.00,,,0.00,Wunderground v.1.15,2013-08-21 15:46:00,
2013-08-21 10:52:00,80.2,70.4,30.04,SSE,163,5.0,7.0,72,0.00,,,0.00,Wunderground v.1.15,2013-08-21 15:52:00,
2013-08-21 10:58:00,80.2,70.4,30.04,South,181,6.0,7.0,72,0.00,,,0.00,Wunderground v.1.15,2013-08-21 15:58:00,
2013-08-21 11:04:00,79.7,70.3,30.04,SW,232,5.0,6.0,73,0.00,,,0.00,Wunderground v.1.15,2013-08-21 16:04:00,
2013-08-21 11:10:00,80.3,70.4,30.04,SW,218,4.0,4.0,72,0.00,,,0.00,Wunderground v.1.15,2013-08-21 16:10:00,
2013-08-21 11:16:00,81.5,69.9,30.04,SSE,165,5.0,9.0,68,0.00,,,0.00,Wunderground v.1.15,2013-08-21 16:16:00,
2013-08-21 11:22:00,81.3,69.3,30.04,SSW,203,6.0,6.0,67,0.00,,,0.00,Wunderground v.1.15,2013-08-21 16:22:00,
2013-08-21 11:28:00,81.8,69.8,30.04,WSW,242,3.0,6.0,67,0.00,,,0.00,Wunderground v.1.15,2013-08-21 16:28:00,
2013-08-21 11:34:00,81.9,70.3,30.04,SW,218,4.0,6.0,68,0.00,,,0.00,Wunderground v.1.15,2013-08-21 16:34:00,
2013-08-21 11:40:00,82.6,70.5,30.04,SSW,212,4.0,8.0,67,0.00,,,0.00,Wunderground v.1.15,2013-08-21 16:40:00,
2013-08-21 11:46:00,82.6,70.5,30.04,SW,228,5.0,10.0,67,0.00,,,0.00,Wunderground v.1.15,2013-08-21 16:46:00,
2013-08-21 11:52:00,83.6,70.6,30.04,SE,145,5.0,6.0,65,0.00,,,0.00,Wunderground v.1.15,2013-08-21 16:52:00,
2013-08-21 11:58:00,82.9,70.4,30.04,South,181,5.0,7.0,66,0.00,,,0.00,Wunderground v.1.15,2013-08-21 16:58:00,
2013-08-21 12:04:00,82.0,69.5,30.04,SSW,211,4.0,6.0,66,0.00,,,0.00,Wunderground v.1.15,2013-08-21 17:04:00,
2013-08-21 12:10:00,80.9,70.2,30.04,South,184,5.0,5.0,70,0.00,,,0.00,Wunderground v.1.15,2013-08-21 17:10:00,
2013-08-21 12:16:00,80.1,72.6,30.04,SSE,148,2.0,6.0,78,0.29,,,0.05,Wunderground v.1.15,2013-08-21 17:16:00,
2013-08-21 12:22:00,78.7,72.4,30.04,NE,39,1.0,6.0,81,0.07,,,0.05,Wunderground v.1.15,2013-08-21 17:22:00,
2013-08-21 12:28:00,77.9,73.0,30.04,NNE,30,2.0,6.0,85,0.04,,,0.05,Wunderground v.1.15,2013-08-21 17:28:00,
2013-08-21 12:34:00,79.4,74.1,30.03,NE,41,2.0,6.0,84,0.00,,,0.05,Wunderground v.1.15,2013-08-21 17:34:00,
2013-08-21 12:40:00,81.7,73.4,30.03,SE,136,1.0,1.0,76,0.00,,,0.05,Wunderground v.1.15,2013-08-21 17:40:00,
2013-08-21 12:46:00,83.5,72.3,30.03,SW,225,2.0,6.0,69,0.00,,,0.05,Wunderground v.1.15,2013-08-21 17:46:00,
2013-08-21 12:52:00,84.0,69.1,30.02,SW,226,3.0,6.0,61,0.00,,,0.05,Wunderground v.1.15,2013-08-21 17:52:00,
2013-08-21 12:58:00,84.5,70.0,30.02,SSW,193,3.0,6.0,62,0.00,,,0.05,Wunderground v.1.15,2013-08-21 17:58:00,
2013-08-21 13:04:00,85.0,68.6,30.02,SE,139,3.0,4.0,58,0.00,,,0.05,Wunderground v.1.15,2013-08-21 18:04:00,
2013-08-21 13:10:00,85.3,68.8,30.02,SSW,197,4.0,4.0,58,0.00,,,0.05,Wunderground v.1.15,2013-08-21 18:10:00,
2013-08-21 13:16:00,85.8,69.3,30.02,ESE,113,4.0,7.0,58,0.00,,,0.05,Wunderground v.1.15,2013-08-21 18:16:00,
2013-08-21 13:24:00,86.5,68.4,30.01,SSE,148,6.0,17.0,55,0.00,,,0.05,Wunderground v.1.15,2013-08-21 18:24:00,
2013-08-21 13:34:00,86.8,67.1,30.01,SSW,196,7.0,8.0,52,0.00,,,0.05,Wunderground v.1.15,2013-08-21 18:34:00,
2013-08-21 13:40:00,87.7,67.9,30.01,SSW,205,7.0,9.0,52,0.00,,,0.05,Wunderground v.1.15,2013-08-21 18:40:00,
2013-08-21 13:46:00,88.0,67.6,30.01,SSE,158,7.0,10.0,51,0.00,,,0.05,Wunderground v.1.15,2013-08-21 18:46:00,
2013-08-21 13:52:00,88.3,68.4,30.01,SSE,158,8.0,11.0,52,0.00,,,0.05,Wunderground v.1.15,2013-08-21 18:52:00,
2013-08-21 13:58:00,88.1,67.7,30.00,SW,219,8.0,11.0,51,0.00,,,0.05,Wunderground v.1.15,2013-08-21 18:58:00,
2013-08-21 14:04:00,88.3,67.9,30.00,South,181,7.0,10.0,51,0.00,,,0.05,Wunderground v.1.15,2013-08-21 19:04:00,
2013-08-21 14:10:00,88.5,68.1,30.00,SSW,208,8.0,8.0,51,0.00,,,0.05,Wunderground v.1.15,2013-08-21 19:10:00,
2013-08-21 14:16:00,88.6,67.6,30.00,South,177,9.0,11.0,50,0.00,,,0.05,Wunderground v.1.15,2013-08-21 19:16:00,
2013-08-21 14:22:00,88.4,68.0,29.99,South,182,7.0,7.0,51,0.00,,,0.05,Wunderground v.1.15,2013-08-21 19:22:00,
2013-08-21 14:28:00,87.3,67.5,29.99,SW,217,6.0,7.0,52,0.00,,,0.05,Wunderground v.1.15,2013-08-21 19:28:00,
2013-08-21 14:34:00,87.2,68.0,29.99,SSW,207,6.0,8.0,53,0.00,,,0.05,Wunderground v.1.15,2013-08-21 19:34:00,
2013-08-21 14:40:00,87.0,68.3,29.99,SSE,155,6.0,8.0,54,0.00,,,0.05,Wunderground v.1.15,2013-08-21 19:40:00,
2013-08-21 14:46:00,87.1,67.9,29.99,South,187,7.0,8.0,53,0.00,,,0.05,Wunderground v.1.15,2013-08-21 19:46:00,
2013-08-21 14:52:00,88.0,68.7,29.98,SW,229,7.0,7.0,53,0.00,,,0.05,Wunderground v.1.15,2013-08-21 19:52:00,
2013-08-21 14:58:00,89.0,67.4,29.98,South,179,7.0,11.0,49,0.00,,,0.05,Wunderground v.1.15,2013-08-21 19:58:00,
2013-08-21 15:04:00,88.8,67.2,29.98,ENE,77,6.0,7.0,49,0.00,,,0.05,Wunderground v.1.15,2013-08-21 20:04:00,
2013-08-21 15:10:00,89.2,67.5,29.98,SW,217,5.0,6.0,49,0.00,,,0.05,Wunderground v.1.15,2013-08-21 20:10:00,
2013-08-21 15:16:00,89.2,66.9,29.97,SSW,198,6.0,6.0,48,0.00,,,0.05,Wunderground v.1.15,2013-08-21 20:16:00,
2013-08-21 15:22:00,89.7,67.4,29.97,SSE,162,7.0,7.0,48,0.00,,,0.05,Wunderground v.1.15,2013-08-21 20:22:00,
2013-08-21 15:28:00,89.5,67.8,29.97,SE,129,6.0,7.0,49,0.00,,,0.05,Wunderground v.1.15,2013-08-21 20:28:00,
2013-08-21 15:34:00,90.5,66.9,29.97,SE,143,5.0,6.0,46,0.00,,,0.05,Wunderground v.1.15,2013-08-21 20:34:00,
2013-08-21 15:40:00,90.4,66.8,29.97,SSE,163,5.0,7.0,46,0.00,,,0.05,Wunderground v.1.15,2013-08-21 20:40:00,
2013-08-21 15:46:00,90.3,66.1,29.96,South,172,6.0,8.0,45,0.00,,,0.05,Wunderground v.1.15,2013-08-21 20:46:00,
2013-08-21 15:52:00,90.4,66.2,29.96,SW,232,7.0,7.0,45,0.00,,,0.05,Wunderground v.1.15,2013-08-21 20:52:00,
2013-08-21 15:58:00,91.2,66.9,29.96,SE,125,6.0,7.0,45,0.00,,,0.05,Wunderground v.1.15,2013-08-21 20:58:00,
2013-08-21 16:04:00,92.4,66.0,29.95,ESE,106,5.0,8.0,42,0.00,,,0.05,Wunderground v.1.15,2013-08-21 21:04:00,
2013-08-21 16:10:00,92.5,66.1,29.95,South,170,5.0,5.0,42,0.00,,,0.05,Wunderground v.1.15,2013-08-21 21:10:00,
2013-08-21 16:16:00,92.4,66.7,29.95,SSE,151,6.0,11.0,43,0.00,,,0.05,Wunderground v.1.15,2013-08-21 21:16:00,
2013-08-21 16:22:00,92.1,66.4,29.95,South,186,6.0,9.0,43,0.00,,,0.05,Wunderground v.1.15,2013-08-21 21:22:00,
2013-08-21 16:28:00,92.1,67.1,29.94,SSW,193,6.0,11.0,44,0.00,,,0.05,Wunderground v.1.15,2013-08-21 21:28:00,
2013-08-21 16:34:00,92.1,66.4,29.94,SSE,167,6.0,9.0,43,0.00,,,0.05,Wunderground v.1.15,2013-08-21 21:34:00,
2013-08-21 16:40:00,90.8,66.5,29.94,SW,214,7.0,7.0,45,0.00,,,0.05,Wunderground v.1.15,2013-08-21 21:40:00,
2013-08-21 16:46:00,91.0,66.1,29.93,ESE,119,5.0,7.0,44,0.00,,,0.05,Wunderground v.1.15,2013-08-21 21:46:00,
2013-08-21 16:52:00,91.4,66.4,29.93,SE,131,6.0,8.0,44,0.00,,,0.05,Wunderground v.1.15,2013-08-21 21:52:00,
2013-08-21 16:58:00,90.5,65.6,29.93,South,183,7.0,8.0,44,0.00,,,0.05,Wunderground v.1.15,2013-08-21 21:58:00,
2013-08-21 17:04:00,90.3,66.1,29.93,SE,141,7.0,7.0,45,0.00,,,0.05,Wunderground v.1.15,2013-08-21 22:04:00,
2013-08-21 17:10:00,89.3,66.4,29.93,SSE,162,7.0,7.0,47,0.00,,,0.05,Wunderground v.1.15,2013-08-21 22:10:00,
2013-08-21 17:16:00,89.3,67.0,29.93,South,181,6.0,9.0,48,0.00,,,0.05,Wunderground v.1.15,2013-08-21 22:16:00,
2013-08-21 17:22:00,90.3,66.7,29.93,South,179,8.0,8.0,46,0.00,,,0.05,Wunderground v.1.15,2013-08-21 22:22:00,
2013-08-21 17:28:00,90.7,66.4,29.93,SW,215,9.0,9.0,45,0.00,,,0.05,Wunderground v.1.15,2013-08-21 22:28:00,
2013-08-21 17:34:00,90.8,67.2,29.93,SSE,167,9.0,16.0,46,0.00,,,0.05,Wunderground v.1.15,2013-08-21 22:34:00,
2013-08-21 17:40:00,90.3,68.5,29.94,SSE,155,12.0,23.0,49,0.00,,,0.05,Wunderground v.1.15,2013-08-21 22:40:00,
2013-08-21 17:46:00,89.6,69.1,29.93,South,180,13.0,23.0,51,0.00,,,0.05,Wunderground v.1.15,2013-08-21 22:46:00,
2013-08-21 17:52:00,89.4,68.9,29.94,SE,143,12.0,12.0,51,0.00,,,0.05,Wunderground v.1.15,2013-08-21 22:52:00,
2013-08-21 17:58:00,89.1,68.6,29.94,SE,129,11.0,12.0,51,0.00,,,0.05,Wunderground v.1.15,2013-08-21 22:58:00,
2013-08-21 18:04:00,89.0,68.5,29.95,SSE,159,10.0,11.0,51,0.00,,,0.05,Wunderground v.1.15,2013-08-21 23:04:00,
2013-08-21 18:10:00,88.9,69.0,29.95,SE,132,10.0,10.0,52,0.00,,,0.05,Wunderground v.1.15,2013-08-21 23:10:00,
2013-08-21 18:16:00,88.5,68.6,29.95,SE,134,10.0,11.0,52,0.00,,,0.05,Wunderground v.1.15,2013-08-21 23:16:00,
2013-08-21 18:22:00,88.0,68.2,29.95,SSE,149,11.0,14.0,52,0.00,,,0.05,Wunderground v.1.15,2013-08-21 23:22:00,
2013-08-21 18:28:00,87.4,68.2,29.95,SE,136,12.0,14.0,53,0.00,,,0.05,Wunderground v.1.15,2013-08-21 23:28:00,
2013-08-21 18:34:00,86.8,68.2,29.95,SSE,159,11.0,20.0,54,0.00,,,0.05,Wunderground v.1.15,2013-08-21 23:34:00,
2013-08-21 18:40:00,86.5,68.4,29.95,ESE,120,11.0,11.0,55,0.00,,,0.05,Wunderground v.1.15,2013-08-21 23:40:00,
2013-08-21 18:46:00,86.6,68.0,29.95,South,179,10.0,15.0,54,0.00,,,0.05,Wunderground v.1.15,2013-08-21 23:46:00,
2013-08-21 18:52:00,86.1,68.0,29.94,SSE,148,11.0,13.0,55,0.00,,,0.05,Wunderground v.1.15,2013-08-21 23:52:00,
2013-08-21 18:58:00,85.6,67.6,29.95,SE,129,11.0,13.0,55,0.00,,,0.05,Wunderground v.1.15,2013-08-21 23:58:00,
2013-08-21 19:04:00,85.0,67.5,29.94,SE,131,11.0,12.0,56,0.00,,,0.05,Wunderground v.1.15,2013-08-22 00:04:00,
2013-08-21 19:10:00,84.7,67.8,29.95,SSE,154,10.0,10.0,57,0.00,,,0.05,Wunderground v.1.15,2013-08-22 00:10:00,
2013-08-21 19:16:00,84.5,67.6,29.95,SE,136,8.0,13.0,57,0.00,,,0.05,Wunderground v.1.15,2013-08-22 00:16:00,
2013-08-21 19:22:00,84.3,66.9,29.94,South,179,7.0,7.0,56,0.00,,,0.05,Wunderground v.1.15,2013-08-22 00:22:00,
2013-08-21 19:28:00,84.0,66.6,29.94,SSE,150,9.0,14.0,56,0.00,,,0.05,Wunderground v.1.15,2013-08-22 00:28:00,
2013-08-21 19:34:00,83.9,67.0,29.94,South,170,9.0,10.0,57,0.00,,,0.05,Wunderground v.1.15,2013-08-22 00:34:00,
2013-08-21 19:40:00,83.7,66.8,29.94,SSE,163,9.0,9.0,57,0.00,,,0.05,Wunderground v.1.15,2013-08-22 00:40:00,
2013-08-21 19:46:00,83.6,66.2,29.94,SSE,167,10.0,14.0,56,0.00,,,0.05,Wunderground v.1.15,2013-08-22 00:46:00,
2013-08-21 19:52:00,83.4,66.1,29.94,SW,215,10.0,10.0,56,0.00,,,0.05,Wunderground v.1.15,2013-08-22 00:52:00,
2013-08-21 19:58:00,83.0,66.2,29.95,SSE,166,9.0,12.0,57,0.00,,,0.05,Wunderground v.1.15,2013-08-22 00:58:00,
2013-08-21 20:04:00,82.8,66.5,29.95,SSE,150,9.0,11.0,58,0.00,,,0.05,Wunderground v.1.15,2013-08-22 01:04:00,
2013-08-21 20:10:00,82.5,66.2,29.95,SSE,154,8.0,8.0,58,0.00,,,0.05,Wunderground v.1.15,2013-08-22 01:10:00,
2013-08-21 20:16:00,82.4,66.1,29.96,South,169,7.0,9.0,58,0.00,,,0.05,Wunderground v.1.15,2013-08-22 01:16:00,
2013-08-21 20:22:00,82.3,66.5,29.96,SE,129,7.0,7.0,59,0.00,,,0.05,Wunderground v.1.15,2013-08-22 01:22:00,
2013-08-21 20:28:00,82.1,66.4,29.96,South,174,6.0,10.0,59,0.00,,,0.05,Wunderground v.1.15,2013-08-22 01:28:00,
2013-08-21 20:34:00,82.0,66.3,29.96,SSE,158,6.0,7.0,59,0.00,,,0.05,Wunderground v.1.15,2013-08-22 01:34:00,
2013-08-21 20:40:00,81.9,66.2,29.96,SSW,192,6.0,10.0,59,0.00,,,0.05,Wunderground v.1.15,2013-08-22 01:40:00,
2013-08-21 20:46:00,81.8,66.6,29.96,SSW,212,8.0,10.0,60,0.00,,,0.05,Wunderground v.1.15,2013-08-22 01:46:00,
2013-08-21 20:52:00,81.7,67.9,29.96,SE,129,9.0,19.0,63,0.00,,,0.05,Wunderground v.1.15,2013-08-22 01:52:00,
2013-08-21 20:58:00,81.3,68.4,29.97,SSW,200,11.0,19.0,65,0.00,,,0.05,Wunderground v.1.15,2013-08-22 01:58:00,
2013-08-21 21:04:00,80.8,68.8,29.97,ESE,107,12.0,18.0,67,0.00,,,0.05,Wunderground v.1.15,2013-08-22 02:04:00,
2013-08-21 21:10:00,80.5,69.0,29.97,SSE,158,10.0,11.0,68,0.00,,,0.05,Wunderground v.1.15,2013-08-22 02:10:00,
2013-08-21 21:16:00,80.0,69.3,29.98,South,176,11.0,16.0,70,0.00,,,0.05,Wunderground v.1.15,2013-08-22 02:16:00,
2013-08-21 21:22:00,79.6,69.8,29.99,SSE,152,10.0,11.0,72,0.00,,,0.05,Wunderground v.1.15,2013-08-22 02:22:00,
2013-08-21 21:28:00,79.4,69.6,30.00,South,184,9.0,12.0,72,0.00,,,0.05,Wunderground v.1.15,2013-08-22 02:28:00,
2013-08-21 21:34:00,79.1,69.3,30.00,South,172,10.0,14.0,72,0.00,,,0.05,Wunderground v.1.15,2013-08-22 02:34:00,
2013-08-21 21:40:00,78.8,69.4,30.00,South,187,11.0,11.0,73,0.00,,,0.05,Wunderground v.1.15,2013-08-22 02:40:00,
2013-08-21 21:46:00,78.5,69.1,30.00,South,172,10.0,14.0,73,0.00,,,0.05,Wunderground v.1.15,2013-08-22 02:46:00,
2013-08-21 21:52:00,78.3,68.9,30.00,SSE,167,11.0,11.0,73,0.00,,,0.05,Wunderground v.1.15,2013-08-22 02:52:00,
2013-08-21 21:58:00,78.0,68.6,30.01,South,169,9.0,11.0,73,0.00,,,0.05,Wunderground v.1.15,2013-08-22 02:58:00,
2013-08-21 22:04:00,77.8,68.8,30.01,SE,137,7.0,8.0,74,0.00,,,0.05,Wunderground v.1.15,2013-08-22 03:04:00,
2013-08-21 22:10:00,77.5,68.6,30.01,SE,141,6.0,6.0,74,0.00,,,0.05,Wunderground v.1.15,2013-08-22 03:10:00,
2013-08-21 22:16:00,77.4,68.5,30.01,SE,143,7.0,7.0,74,0.00,,,0.05,Wunderground v.1.15,2013-08-22 03:16:00,
2013-08-21 22:22:00,77.1,68.2,30.02,South,184,7.0,7.0,74,0.00,,,0.05,Wunderground v.1.15,2013-08-22 03:22:00,
2013-08-21 22:28:00,76.9,68.4,30.02,SE,131,6.0,7.0,75,0.00,,,0.05,Wunderground v.1.15,2013-08-22 03:28:00,
2013-08-21 22:34:00,76.6,68.1,30.02,SE,131,5.0,6.0,75,0.00,,,0.05,Wunderground v.1.15,2013-08-22 03:34:00,
2013-08-21 22:40:00,76.4,68.3,30.02,South,183,4.0,6.0,76,0.00,,,0.05,Wunderground v.1.15,2013-08-22 03:40:00,
2013-08-21 22:46:00,76.1,68.0,30.03,SSE,151,3.0,6.0,76,0.00,,,0.05,Wunderground v.1.15,2013-08-22 03:46:00,
2013-08-21 22:52:00,75.9,68.2,30.02,SE,143,4.0,6.0,77,0.00,,,0.05,Wunderground v.1.15,2013-08-22 03:52:00,
2013-08-21 22:58:00,75.9,68.2,30.02,SE,141,5.0,6.0,77,0.00,,,0.05,Wunderground v.1.15,2013-08-22 03:58:00,
2013-08-21 23:02:00,75.8,68.4,30.02,South,174,6.0,6.0,78,0.00,,,0.05,Wunderground v.1.15,2013-08-22 04:02:00,
2013-08-21 23:04:00,75.8,68.4,30.02,SE,146,6.0,6.0,78,0.00,,,0.05,Wunderground v.1.15,2013-08-22 04:04:00,
2013-08-21 23:10:00,75.7,68.4,30.02,SSE,150,6.0,6.0,78,0.00,,,0.05,Wunderground v.1.15,2013-08-22 04:10:00,
2013-08-21 23:14:00,75.6,68.3,30.02,SE,143,6.0,6.0,78,0.00,,,0.05,Wunderground v.1.15,2013-08-22 04:14:00,
2013-08-21 23:20:00,75.6,68.3,30.02,SSW,194,6.0,6.0,78,0.00,,,0.05,Wunderground v.1.15,2013-08-22 04:20:00,
2013-08-21 23:24:00,75.5,68.5,30.02,SE,145,6.0,6.0,79,0.00,,,0.05,Wunderground v.1.15,2013-08-22 04:24:00,
2013-08-21 23:30:00,75.3,68.3,30.02,SSE,150,4.0,4.0,79,0.00,,,0.05,Wunderground v.1.15,2013-08-22 04:30:00,
2013-08-21 23:36:00,75.1,68.5,30.02,SE,143,4.0,6.0,80,0.00,,,0.05,Wunderground v.1.15,2013-08-22 04:36:00,
2013-08-21 23:42:00,74.9,68.3,30.02,SSE,154,5.0,6.0,80,0.00,,,0.05,Wunderground v.1.15,2013-08-22 04:42:00,
2013-08-21 23:48:00,74.8,68.6,30.01,SE,143,5.0,6.0,81,0.00,,,0.05,Wunderground v.1.15,2013-08-22 04:48:00,
2013-08-21 23:54:00,74.7,68.5,30.01,SSE,149,5.0,6.0,81,0.00,,,0.05,Wunderground v.1.15,2013-08-22 04:54:00,